TimeCST,TemperatureF,Dew PointF,Humidity,Sea Level PressureIn,VisibilityMPH,Wind Direction,Wind SpeedMPH,Gust SpeedMPH,PrecipitationIn,Events,Conditions,WindDirDegrees,DateUTC
12:54 AM,21.0,17.1,85,30.44,4.0,Calm,Calm,-,N/A,,Clear,0,2013-01-07 06:54:00
1:29 AM,21.2,17.6,86,30.43,2.5,Calm,Calm,-,N/A,,Clear,0,2013-01-07 07:29:00
1:41 AM,21.2,17.6,86,30.44,3.0,Calm,Calm,-,N/A,,Clear,0,2013-01-07 07:41:00
1:54 AM,19.0,16.0,88,30.46,3.0,Calm,Calm,-,N/A,,Clear,0,2013-01-07 07:54:00
2:54 AM,19.9,17.1,89,30.47,4.0,Calm,Calm,-,N/A,,Clear,0,2013-01-07 08:54:00
3:54 AM,19.9,16.0,85,30.46,4.0,Calm,Calm,-,N/A,,Clear,0,2013-01-07 09:54:00
4:54 AM,19.0,15.1,85,30.47,4.0,Calm,Calm,-,N/A,,Clear,0,2013-01-07 10:54:00
5:54 AM,19.0,16.0,88,30.47,4.0,NE,3.5,-,N/A,,Clear,50,2013-01-07 11:54:00
6:54 AM,18.0,15.1,88,30.48,4.0,Calm,Calm,-,N/A,,Clear,0,2013-01-07 12:54:00
7:54 AM,19.9,17.1,89,30.48,3.0,Calm,Calm,-,N/A,,Clear,0,2013-01-07 13:54:00
8:54 AM,25.0,21.9,88,30.50,4.0,Calm,Calm,-,N/A,,Clear,0,2013-01-07 14:54:00
9:54 AM,30.0,23.0,75,30.51,6.0,SSE,3.5,-,N/A,,Haze,150,2013-01-07 15:54:00
10:54 AM,33.1,25.0,72,30.49,9.0,Calm,Calm,-,N/A,,Clear,0,2013-01-07 16:54:00
11:54 AM,35.1,24.1,64,30.43,10.0,SE,6.9,-,N/A,,Clear,130,2013-01-07 17:54:00
12:54 PM,37.4,24.8,60,30.37,10.0,SE,8.1,-,N/A,,Clear,140,2013-01-07 18:54:00
1:54 PM,39.0,26.1,60,30.37,10.0,SSE,9.2,-,N/A,,Clear,150,2013-01-07 19:54:00
2:54 PM,39.9,26.1,58,30.34,10.0,SE,6.9,-,N/A,,Clear,140,2013-01-07 20:54:00
3:54 PM,39.9,26.1,58,30.32,10.0,ESE,6.9,-,N/A,,Clear,120,2013-01-07 21:54:00
4:54 PM,37.4,26.6,65,30.29,10.0,SE,4.6,-,N/A,,Clear,140,2013-01-07 22:54:00
5:54 PM,35.1,25.0,67,30.30,10.0,Calm,Calm,-,N/A,,Clear,0,2013-01-07 23:54:00
6:54 PM,28.0,23.0,81,30.31,8.0,Calm,Calm,-,N/A,,Clear,0,2013-01-08 00:54:00
7:54 PM,30.0,25.0,82,30.30,8.0,Calm,Calm,-,N/A,,Clear,0,2013-01-08 01:54:00
8:54 PM,27.0,21.9,81,30.30,6.0,Calm,Calm,-,N/A,,Haze,0,2013-01-08 02:54:00
9:54 PM,26.1,21.0,81,30.27,6.0,Calm,Calm,-,N/A,,Haze,0,2013-01-08 03:54:00
10:54 PM,27.0,21.9,81,30.27,6.0,Calm,Calm,-,N/A,,Haze,0,2013-01-08 04:54:00
11:54 PM,28.0,23.0,81,30.27,7.0,Calm,Calm,-,N/A,,Clear,0,2013-01-08 05:54:00